RH
71 69 67 61 57 59 62 62 60 55 43 33 29 27 27 28 30 32 34 36 36 36 36 36 35 35 34 34 33 33 32 31 29 26 23 21 18 17 16 16 15 14 14 14 15 15 15 15 16 17 17 18 18 19 19 20 20 22 27 28 28 33 34 33 31 30 31 33 35 35 38 41 42 42 41 42 42 43 45 46 47 48 48 48 46 43 42 41
59 56 54 51 49 50 52 51 47 38 31 28 29 30 33 34 35 37 37 37 37 37 36 34 33 32 30 29 27 26 24 23 21 20 18 17 17 16 16 16 16 17 16 16 16 15 16 17 18 19 19 19 20 21 21 22 22 26 33 31 32 37 34 29 29 28 28 30 31 33 36 38 37 37 37 39 41 42 42 42 43 43 41 41 40 38 37 37
50 48 47 44 42 42 42 40 36 33 31 32 34 36 37 38 38 37 37 36 36 34 32 29 26 23 20 18 17 17 18 18 17 18 18 17 18 17 17 17 17 17 16 15 15 15 16 17 18 19 19 20 21 22 23 23 24 26 30 32 36 37 31 26 27 27 28 30 30 32 34 35 35 35 35 36 38 40 39 35 35 33 31 31 32 32 32 32
48 45 42 39 38 38 38 36 35 37 37 37 38 39 38 38 37 37 36 34 30 26 21 17 14 13 12 12 14 15 16 17 18 18 18 17 17 16 15 15 15 16 16 15 15 15 16 16 17 18 19 19 19 21 22 22 23 25 27 32 34 31 26 24 24 25 25 26 27 27 28 29 29 30 30 31 31 35 33 26 25 25 23 24 26 27 28 29
46 43 40 40 42 41 40 39 40 41 41 40 39 39 38 37 36 34 30 24 18 14 11 11 11 12 12 13 15 16 17 19 20 18 17 16 15 14 13 12 13 14 15 15 15 14 14 14 14 15 15 16 17 17 18 19 20 22 24 26 26 23 22 21 20 21 21 21 22 23 23 23 23 24 25 26 25 25 24 20 20 21 21 22 23 24 26 28
47 45 43 44 45 42 41 42 42 41 40 39 38 38 37 34 30 24 18 13 11 11 12 13 13 14 14 14 16 16 16 19 19 16 15 14 13 13 13 11 10 11 13 14 13 12 11 11 11 11 11 13 15 15 15 16 17 20 21 19 18 18 18 18 18 19 19 20 21 22 22 21 21 21 21 23 22 20 19 18 19 18 19 20 22 23 24 26
52 49 47 46 47 45 44 44 43 41 40 39 38 35 30 24 18 13 11 11 12 13 14 14 14 14 14 14 15 15 15 17 17 15 14 14 14 14 13 11 9 10 11 10 10 9 9 8 8 9 10 11 13 14 15 15 15 18 19 17 17 17 17 17 18 19 20 20 20 21 21 19 19 19 18 18 17 16 17 17 17 17 16 18 21 22 23 24
48 47 46 45 44 43 41 41 40 40 39 36 32 26 19 14 11 11 12 13 13 14 14 14 13 13 14 15 16 16 15 14 15 14 13 14 14 13 11 9 9 9 9 8 8 8 7 8 8 8 9 10 12 14 14 14 16 18 18 17 17 17 18 18 19 19 20 20 19 19 18 16 16 17 16 14 13 15 15 15 15 15 15 17 19 22 24 24
42 42 41 40 40 39 39 38 36 33 29 25 21 16 13 11 12 13 13 13 12 12 13 14 14 14 16 17 17 17 15 13 13 12 12 12 12 10 9 8 8 8 8 8 7 7 7 7 8 8 9 10 11 13 14 13 15 16 16 16 17 18 18 18 19 19 18 18 17 16 16 14 13 15 14 12 13 13 13 13 13 14 14 16 18 21 24 25
38 38 37 37 36 34 31 27 25 21 18 15 13 11 12 13 14 14 12 11 11 11 13 14 15 16 16 17 16 15 14 12 11 11 11 10 9 8 8 7 7 8 7 7 6 7 8 7 8 8 8 10 11 13 13 13 13 14 14 15 16 16 17 17 17 16 15 15 14 14 15 14 14 16 15 13 13 12 12 12 12 13 14 15 18 20 23 26
35 34 33 30 27 23 20 18 17 15 14 12 12 12 13 14 14 13 11 11 11 12 13 15 16 16 15 15 14 13 13 11 10 9 8 8 8 8 7 7 7 8 8 7 7 8 8 8 9 8 8 10 12 13 12 12 12 12 13 13 15 15 14 14 14 14 14 14 15 15 16 15 16 17 15 12 11 11 11 11 11 11 12 15 18 20 22 24
31 28 25 21 19 18 18 17 16 15 13 13 14 14 14 14 13 12 11 11 12 13 14 16 17 16 14 14 13 12 11 9 8 7 6 7 7 8 7 8 8 8 8 8 8 8 8 9 8 8 9 10 12 13 11 12 12 12 12 13 16 19 16 13 14 14 15 16 16 16 15 13 16 16 11 9 9 10 10 11 11 10 11 13 17 19 21 21
24 21 19 18 17 18 17 17 16 15 14 14 15 15 14 13 12 12 12 12 13 13 15 16 17 16 14 13 12 11 9 7 7 6 6 6 6 7 8 8 8 8 8 8 8 8 8 8 8 9 8 10 12 11 11 11 10 12 13 14 18 21 19 14 15 17 16 17 15 15 14 11 13 12 8 8 9 9 11 11 10 10 10 12 14 17 18 18
20 18 17 17 16 16 16 16 16 15 15 15 15 15 14 13 12 12 12 13 13 13 15 15 16 15 13 12 11 9 7 7 6 5 6 5 6 7 8 8 8 8 8 8 8 8 8 9 9 9 9 10 10 11 16 16 15 16 13 18 21 19 20 18 17 18 16 15 13 13 16 11 10 10 7 8 9 10 11 10 10 9 10 10 12 13 14 14
19 18 16 16 14 13 13 13 14 14 14 15 14 14 13 13 12 13 13 13 13 13 14 14 14 13 11 11 10 8 6 6 6 5 5 6 6 7 7 8 7 8 8 8 9 9 9 9 8 9 9 10 11 16 22 21 23 21 13 19 24 18 21 20 16 17 15 14 12 11 15 13 11 10 9 9 9 10 11 10 10 10 10 10 11 12 12 11
19 17 15 14 13 12 11 12 12 12 13 13 13 13 13 13 13 13 13 13 14 14 14 13 13 12 12 10 8 7 6 6 6 6 6 6 6 6 7 7 8 8 8 8 9 9 9 9 8 9 10 11 18 21 20 20 24 24 16 16 20 17 17 15 12 16 14 12 13 12 14 14 12 11 10 10 10 11 12 12 11 11 10 10 10 11 12 12
19 16 15 13 12 11 11 11 11 12 13 13 13 13 13 13 13 14 14 13 14 13 12 11 11 12 12 8 6 6 5 6 6 6 6 7 7 7 7 7 8 8 8 8 8 9 9 9 10 11 12 14 20 17 12 16 20 22 21 17 18 17 16 15 13 15 16 15 16 16 16 14 14 12 11 11 10 11 13 12 12 12 11 11 11 12 12 13
19 17 15 13 11 10 11 11 11 12 13 13 13 14 14 14 15 14 14 13 13 12 11 9 9 11 11 8 7 6 6 7 7 6 5 6 7 7 7 8 8 8 8 8 7 9 9 9 12 13 14 14 17 15 9 12 14 15 18 17 19 21 18 19 18 15 17 16 15 17 17 15 14 13 11 10 10 11 11 11 11 12 12 12 13 13 12 13
20 19 17 15 12 10 11 11 11 13 14 14 14 14 15 15 15 14 13 12 11 11 10 8 8 9 8 7 7 6 7 7 6 5 5 6 7 7 8 7 7 7 7 8 9 11 10 12 14 13 13 13 15 16 12 13 16 16 18 18 19 21 20 19 20 20 18 15 14 16 16 14 13 12 11 11 10 11 11 11 12 13 14 14 14 14 13 13
22 20 17 16 14 11 11 11 12 14 14 14 14 15 16 15 15 14 12 11 10 9 8 6 7 7 7 7 7 7 7 6 6 6 5 6 7 8 8 7 7 8 9 12 12 11 11 15 16 13 14 15 16 18 17 19 21 19 19 21 21 21 20 18 19 22 18 15 17 18 16 15 14 13 13 12 13 14 14 14 14 13 13 14 14 14 14 13
23 20 19 17 15 13 12 12 14 14 14 14 15 17 17 16 15 13 10 10 9 8 8 7 7 7 7 7 7 7 6 6 6 6 6 6 8 8 7 9 10 10 13 15 13 12 13 13 14 16 19 18 17 21 20 18 20 19 18 19 20 21 20 17 17 21 19 15 18 19 17 16 15 14 13 13 15 16 16 16 15 13 13 14 14 14 14 13
23 21 19 17 16 14 12 13 14 14 14 16 16 17 17 15 14 12 11 10 9 8 8 8 7 7 8 8 8 7 6 6 6 6 7 7 8 8 7 12 16 15 17 17 14 16 16 14 14 18 20 19 21 24 20 17 20 21 19 17 18 19 20 19 19 21 20 15 17 19 18 16 15 15 15 16 17 16 15 15 15 15 15 15 14 14 14 14
24 22 20 18 17 14 13 14 14 15 16 16 15 15 15 14 13 12 10 10 10 10 10 9 8 7 8 9 9 8 6 7 7 7 8 8 8 9 9 15 21 21 19 20 19 16 12 13 17 18 18 17 19 23 22 19 20 20 18 15 16 18 18 17 19 22 21 18 19 21 20 17 16 16 16 16 17 16 15 15 15 15 16 16 15 16 16 15
25 23 20 18 17 15 14 15 15 16 16 14 14 15 15 14 14 11 11 12 12 12 11 10 9 8 9 9 9 9 7 8 9 8 9 10 10 11 11 15 21 21 19 22 23 17 11 13 17 18 20 18 15 20 22 19 20 22 20 17 18 20 17 17 21 22 21 21 22 21 19 17 16 17 16 17 19 18 16 16 14 15 15 16 16 16 17 17
26 23 20 18 18 16 15 15 16 17 15 14 15 15 15 15 13 10 12 15 14 13 13 11 10 9 9 9 9 10 9 8 9 9 9 11 11 12 13 14 15 14 18 23 19 14 13 14 15 16 20 21 17 19 20 17 19 21 21 20 19 20 19 20 24 22 19 20 21 21 21 18 17 18 18 21 24 20 18 18 15 15 15 16 16 17 18 19
26 24 20 18 18 18 16 15 16 16 16 15 15 15 14 14 12 8 14 21 17 13 13 12 12 11 10 10 9 10 10 8 9 10 10 10 11 13 14 15 14 12 19 22 17 15 15 16 17 17 20 21 19 19 20 21 20 17 18 22 21 22 22 23 24 22 21 20 20 23 23 20 18 18 21 25 25 21 20 21 18 16 17 18 19 19 19 20
28 25 21 18 18 18 16 16 15 15 16 16 15 15 13 13 12 8 14 21 16 12 12 11 11 10 11 10 9 9 8 8 9 10 10 10 11 12 13 17 15 14 21 19 13 16 18 18 19 20 21 21 20 20 21 23 21 17 20 24 24 23 23 24 23 22 24 23 23 26 25 24 22 19 23 26 23 22 22 22 21 19 19 21 21 22 22 22
28 26 21 19 18 18 18 17 16 14 16 16 15 14 14 13 10 10 17 16 10 12 13 12 10 9 11 11 9 9 9 9 9 9 11 11 11 11 14 17 16 19 23 17 12 16 19 20 20 21 22 21 21 22 22 21 19 18 23 27 26 25 25 27 25 27 30 26 25 28 25 25 26 21 24 25 21 22 22 21 22 22 21 21 22 22 23 24
28 26 22 20 19 18 19 20 18 15 17 17 14 13 14 11 9 14 19 14 9 14 15 12 11 9 10 12 11 10 10 10 10 10 11 12 12 12 15 18 19 23 23 19 18 20 21 21 21 21 21 20 22 26 25 22 19 20 25 28 29 30 31 30 29 32 34 29 27 28 26 26 26 21 21 22 19 21 22 22 23 23 22 22 22 22 22 23
27 26 23 21 20 18 18 19 18 17 18 17 14 14 12 10 16 20 17 13 11 13 14 11 10 10 12 13 11 11 12 11 11 12 11 12 12 12 15 18 19 23 26 24 24 24 23 24 24 22 20 21 23 26 27 25 23 24 27 28 27 29 31 32 36 34 32 33 31 29 28 27 26 23 22 22 21 21 22 23 24 24 24 24 23 24 23 24
27 25 23 22 21 19 18 17 17 18 18 15 14 14 10 13 25 24 14 11 12 11 12 12 13 15 17 15 10 12 15 14 13 14 14 16 17 15 16 18 18 24 29 26 23 23 23 24 25 23 22 24 22 23 27 29 28 27 27 25 22 24 25 28 36 32 30 37 34 30 31 29 26 24 23 25 24 23 23 24 25 26 26 24 23 24 25 26
27 25 24 23 21 19 18 16 17 18 17 16 15 14 14 16 19 18 13 11 12 13 13 12 15 18 20 17 13 16 18 14 14 17 19 21 22 19 18 19 19 20 23 22 20 21 22 25 28 25 24 25 22 21 25 29 30 27 25 25 25 28 27 29 35 32 32 35 30 28 30 27 25 23 22 25 24 23 24 25 26 27 27 26 25 26 26 27
28 27 25 24 22 20 18 17 17 17 17 17 14 15 20 19 13 15 17 12 10 15 15 14 17 19 17 13 11 16 16 14 16 19 20 22 22 21 21 24 22 17 16 19 18 20 22 26 28 25 24 25 22 21 21 23 25 22 22 27 28 29 28 32 36 32 30 31 26 27 28 25 24 22 23 24 23 23 25 25 27 28 28 28 28 28 28 28
28 28 26 25 23 20 19 18 16 18 18 17 16 17 18 16 13 14 16 14 14 18 18 17 18 18 15 11 13 17 13 13 19 20 19 20 19 19 21 24 24 20 20 21 18 19 21 21 23 23 24 24 22 23 21 21 24 23 24 25 26 27 25 29 35 30 28 32 30 27 28 29 27 23 25 25 23 26 27 28 30 30 31 31 30 30 31 32
28 28 27 26 24 22 20 17 17 20 18 17 21 20 15 14 14 12 13 16 18 18 19 19 18 15 15 16 19 20 13 11 18 19 17 18 18 19 20 20 22 23 22 20 20 21 19 18 23 25 25 25 24 25 24 22 23 25 26 23 25 29 25 27 33 30 28 36 38 31 29 32 29 26 27 27 27 29 29 31 33 33 33 33 33 35 36 38
28 29 27 27 25 23 21 18 19 20 19 21 22 18 18 17 13 12 14 16 16 16 16 16 14 12 13 16 18 19 16 14 17 16 16 19 19 19 22 22 24 24 20 19 21 22 19 19 25 27 26 26 26 26 26 24 22 24 25 24 26 28 25 26 32 33 31 35 38 31 28 31 29 28 31 30 29 31 33 35 35 35 36 36 38 41 41 42
29 29 28 27 26 24 21 19 21 21 20 23 20 17 20 17 13 18 20 16 16 18 15 11 11 11 11 12 14 17 17 16 18 16 14 18 18 19 24 24 24 25 23 21 20 21 21 21 24 27 25 26 27 27 27 26 24 24 24 25 25 26 29 30 31 35 39 38 36 31 31 33 31 32 33 31 31 34 36 38 38 38 40 40 42 42 42 41
29 31 29 28 26 24 22 21 22 22 21 22 20 18 19 15 15 21 21 17 18 19 15 11 12 13 13 12 13 16 16 15 18 18 15 16 17 19 24 24 24 26 25 23 21 22 24 21 22 27 27 27 27 26 27 27 24 24 23 24 24 25 32 34 31 34 37 39 41 37 35 36 36 37 35 31 34 37 39 41 41 41 40 39 38 37 37 37
30 32 30 28 27 25 24 23 23 23 21 21 21 17 17 18 20 21 20 19 18 16 15 14 14 15 15 15 14 15 16 15 16 16 15 15 16 19 22 22 24 28 27 25 24 24 24 21 21 26 27 27 26 24 27 28 27 25 25 26 26 27 32 33 33 36 37 41 46 45 39 36 39 43 39 35 38 40 41 41 39 37 34 33 34 35 37 38
31 32 29 27 27 26 25 24 23 23 20 21 22 19 18 21 22 21 20 20 18 15 14 16 15 14 15 17 17 16 17 19 18 16 16 17 17 19 21 22 25 28 27 25 25 26 24 21 23 25 26 25 23 24 26 27 29 29 28 29 29 29 32 32 34 39 40 43 49 51 46 37 40 46 43 40 41 38 37 36 34 33 33 34 36 38 40 42
30 32 30 27 27 26 26 24 24 26 24 20 20 20 21 22 21 21 21 21 19 17 17 18 16 15 16 16 15 15 18 22 22 19 19 20 18 18 21 24 25 27 27 24 25 27 23 23 26 27 25 23 22 24 25 26 29 30 30 33 32 32 35 37 40 43 43 45 49 54 50 38 39 47 43 38 37 33 33 34 33 34 34 36 38 40 41 40
31 33 31 28 27 27 27 26 26 28 26 19 18 20 22 22 20 20 21 20 19 18 17 20 19 19 19 17 16 19 19 21 23 23 21 21 19 19 22 25 23 24 26 27 28 28 25 27 29 27 25 23 22 24 26 27 30 30 30 32 34 37 38 39 46 50 49 50 54 60 57 41 36 41 37 32 34 33 33 33 33 33 33 35 36 36 36 34
30 30 28 27 28 27 27 26 24 25 26 23 21 21 23 23 21 20 21 19 19 19 19 19 19 19 18 18 19 20 18 18 23 23 23 24 23 23 27 26 24 23 25 27 27 26 26 28 28 27 27 24 23 25 26 28 30 30 32 34 36 40 42 44 51 56 55 54 56 63 59 38 30 35 33 32 34 33 33 32 31 31 31 32 32 31 31 32
28 27 27 27 28 27 27 26 24 24 25 24 22 21 21 23 22 21 22 20 19 19 20 20 19 17 19 21 20 19 18 18 19 21 23 25 26 28 31 28 25 24 23 25 26 24 26 29 28 29 28 25 25 27 27 30 32 32 35 39 40 44 48 50 54 58 58 55 54 57 51 32 27 34 33 31 32 30 31 31 30 30 30 31 32 32 33 34
28 28 28 28 28 27 26 26 26 27 28 24 20 21 20 19 21 21 21 20 20 19 18 19 20 19 22 23 20 22 22 18 17 20 22 24 27 30 32 29 27 26 24 26 25 21 26 30 27 25 27 26 25 25 26 30 34 34 35 38 41 47 52 54 58 61 58 51 46 47 42 27 23 30 32 31 31 30 30 30 29 30 32 33 35 36 37 39
28 30 30 28 28 26 24 24 23 24 28 23 16 18 19 18 20 21 20 19 19 19 18 19 20 20 22 22 20 22 24 21 20 22 24 26 29 31 33 32 30 28 27 27 24 24 30 32 27 25 26 25 22 23 28 33 34 33 35 39 44 51 55 58 61 58 50 46 40 35 34 29 22 25 31 32 32 32 32 31 31 32 34 36 39 40 42 44
28 29 30 27 25 24 23 23 19 17 19 16 11 15 19 19 19 19 20 21 20 21 20 20 21 20 20 22 21 21 24 24 23 24 25 28 31 32 33 34 32 30 29 27 25 28 31 30 28 27 26 24 25 28 33 36 35 34 38 43 49 54 55 54 53 46 42 46 40 25 26 31 27 28 34 34 33 34 33 33 35 36 38 41 42 44 46 49
26 27 28 26 24 23 22 21 18 16 15 12 12 15 18 21 20 17 20 23 22 21 20 19 22 22 21 23 21 20 25 25 24 27 27 28 30 30 29 31 34 32 29 27 26 29 31 30 30 29 29 32 33 33 35 38 39 41 44 47 50 53 52 46 41 37 39 43 36 24 26 31 29 31 36 36 35 36 36 38 39 41 43 44 46 48 49 50
27 27 27 26 25 24 23 21 18 17 16 15 16 17 18 21 22 19 21 23 23 23 21 19 22 25 25 25 20 20 24 23 20 23 28 29 29 28 27 27 31 33 30 28 28 27 29 32 34 35 38 40 38 36 39 43 45 47 49 51 49 46 43 38 34 32 34 35 31 29 32 32 30 35 37 36 37 38 40 42 43 44 46 47 48 49 49 48
27 26 25 24 23 21 22 22 18 17 18 15 16 18 19 21 22 20 20 20 20 23 22 20 22 26 27 26 22 21 24 22 17 18 25 27 26 28 28 25 30 35 32 30 31 27 25 32 41 44 43 40 38 41 45 49 52 52 49 46 42 36 34 34 33 33 35 35 34 36 38 35 33 36 38 38 40 42 43 44 45 47 48 48 48 49 48 46
28 27 25 23 22 21 21 22 20 18 18 16 17 19 19 20 22 20 17 16 17 20 23 22 23 27 29 29 26 24 23 24 21 19 22 24 22 24 24 23 29 36 33 32 33 29 28 37 46 47 44 41 42 48 52 53 55 54 46 38 33 31 32 33 33 34 35 36 37 38 39 38 37 38 40 41 43 44 45 47 48 48 48 47 48 47 45 43
28 28 27 24 23 21 19 19 18 16 17 18 18 18 16 17 19 17 14 15 16 17 19 21 22 25 28 30 28 24 21 23 23 22 23 24 23 23 23 21 26 32 32 33 34 35 39 45 47 46 46 47 50 53 54 53 54 48 37 28 27 29 30 30 31 34 34 34 36 38 38 39 41 42 43 43 43 45 47 49 50 49 47 47 46 44 41 40